Tracking 22879 objects as of 21-Apr-2021
HD Live streaming from Space Station
objects crossing your sky now

COSMOS 1974

Track COSMOS 1974 now!
COSMOS 1974 is classified as:


NORAD ID: 19554
Int'l Code: 1988-092A
Perigee: 7,275.4 km
Apogee: 33,077.3 km
Inclination: 70.0 °
Period: 717.5 minutes
Semi major axis: 26547 km
RCS: 16.1296 m2 (large)
Launch date: October 3, 1988
Source: Commonwealth of Independent States (former USSR) (CIS)
Launch site: PLESETSK MISSILE AND SPACE COMPLEX (PKMTR)
aabbcc
Your satellite tracking list
Your tracking list is empty




NASA's NSSDC Master Catalog

Two Line Element Set (TLE):
1 19554U 88092A   21109.93189924  .00000017  00000-0  00000-0 0  9997
2 19554  69.9664 253.4718 4859593 116.5452 299.9831  2.00710819238331
Source of the keplerian elements: AFSPC